Fort Lauderdale, FL

11:18 AM EDT on August 04, 2015 (GMT -0400)
HT Birch State Park WeatherSTEM | | Change Station
CLOSE
Current Station
Personal Weather Station
Location: Fort Lauderdale, FL
Elevation: 29 ft
Nearby Weather Stations

Elev 29 ft 26.15 °N, 80.11 °W | Updated 7 minutes ago

Partly Cloudy
Partly Cloudy
89.1 °F
Feels Like 104 °F
N
4.0
Wind Variable Wind from East
Gusts 8.0 mph

Today
High -- | Low -- °F
--% Chance of Precip.
Yesterday
High -- | Low -- °F
Precip. -- in
6:47 AM 8:05 PM
Waning Gibbous, 77% visible
Pressure 30.07 in
Visibility 10.0 miles
Clouds Scattered Clouds 3000 ft
Heat Index 104 °F
Dew Point 78 °F
Humidity 71%
Rainfall 0.00 in
Snow Depth Not available.
UV 6.7 out of 12
Pollen 3.00 out of 12
Air Quality Not available.
Flu Activity Not available.
METAR KFXE 041453Z VRB05KT 10SM SCT030 32/23 A3007 RMK AO2 SLP183 T03170228 53008

More Conditions Fewer Conditions

Pressure 30.07 in
Visibility 10.0 miles
Clouds Scattered Clouds 3000 ft
Heat Index 104 °F
Dew Point 78 °F
Humidity 71%
Rainfall 0.00 in
Snow Depth Not available.
UV 6.7 out of 12
Pollen 3.00 out of 12
Air Quality Not available.
Flu Activity Not available.
METAR KFXE 041453Z VRB05KT 10SM SCT030 32/23 A3007 RMK AO2 SLP183 T03170228 53008

More Conditions Fewer Conditions

10-Day Weather Forecast

×

Almanac

Astronomy

Aug. 04, 2015 Rise Set
Actual Time
Civil Twilight
Nautical Twilight
Astronomical Twilight
Moon
Length of Visible Light
Length of Day
Tomorrow will be .
, % of the Moon is Illuminated

Today's Extremes

State Highs State Lows

Community

WunderPhotos

Upload Photos

1,843,905 photos uploaded!

WunderBlogs® & News

Nearby

Air Quality

  Air Quality AQ Index Pollutant
Not available.

Snow Depth

Station Depth Elevation

Earthquake Activity

City Distance Mag. Time & Date
Minimum magnitude displayed is 2.5.

Coastal Water Temperatures

Place Temperature

Stations

Nearby Weather Stations

Station Location Temp. Windchill Dew Point Humidity Wind Precip. Elev Updated Type